Location: Dos Palmas
(32.4468°N, 116.8732°W)
Time: 05:41:02
(UTC+00:00)

Yuri Rocket - Pass Details

Date: 20 June 2021
Orbit: 567 x 1914 km, 28.2° (Epoch: 29 July)

Event Time Altitude Azimuth Distance (km) Brightness Sun altitude
Rises 04:51:27 0° 253° (WSW) 3,333 7.2 -19.9°
Reaches altitude 10° 04:53:40 10° 249° (WSW) 2,550 6.5 -20.2°
Maximum altitude 04:59:46 60° 170° (S) 1,257 4.3 -21.0°
Enters shadow 05:04:44 25° 100° (E) 2,360 5.6 -21.7°
